This demonstration page uses our WeatherBlox Daily Observations layout. Learn more.

Left ArrowRight Arrow

Hourly Observations for May 11, 2016

Temp ( °F °C ) Dew Point ( °F °C ) Humidity (%) Winds ( mph kmh ) Pressure ( in mb ) Visibility ( mi km ) Precip ( " mm )
12:46 am 00:46 Mostly Clear with Mist and Fog 57 13.9 56 13.3 96 96 N N/A 30.03 1017 2 3 N/A
12:53 am 00:53 Mostly Clear with Mist and Fog 56 13.3 55 12.8 97 97 E 3 6 30.01 1016 1 2 N/A
12:59 am 00:59 Partly Cloudy with Mist and Fog 57 13.9 56 13.3 96 96 N N/A 30.03 1017 3 5 N/A
1:53 am 01:53 Mostly Cloudy 58 14.4 57 13.9 97 97 N N/A 30.02 1017 7 11 N/A
2:42 am 02:42 Cloudy 61 16.1 59 15 93 93 N N/A 30.03 1017 10 16 N/A
2:49 am 02:49 Cloudy 61 16 59 15 94 94 N N/A 30.03 1017 10 16 N/A
2:53 am 02:53 Cloudy 61 16.1 59 15 93 93 N N/A 30.01 1016 10 16 N/A
2:58 am 02:58 Cloudy 61 16.1 59 15 93 93 N N/A 30.03 1017 10 16 N/A
3:19 am 03:19 Cloudy 61 16.1 59 15 93 93 N N/A 30.03 1017 10 16 N/A
3:53 am 03:53 Mostly Cloudy 60 15.6 59 15 96 96 N N/A 30.02 1017 10 16 N/A
4:53 am 04:53 Cloudy 61 16.1 59 15 93 93 N N/A 30.03 1017 8 13 N/A
5:27 am 05:27 Cloudy 61 16.1 60 15.6 97 97 N N/A 30.06 1018 9 14 N/A
5:42 am 05:42 Cloudy 61 16.1 60 15.6 97 97 N N/A 30.06 1018 9 14 N/A
5:53 am 05:53 Cloudy 60 15.6 59 15 96 96 N N/A 30.04 1017 8 13 N/A
6:53 am 06:53 Cloudy with Mist and Fog 60 15.6 60 15.6 100 100 N N/A 30.05 1018 5 8 N/A
7:39 am 07:39 Cloudy with Mist and Fog 61 16.1 60 15.6 97 97 N N/A 30.06 1018 4 6 N/A
7:53 am 07:53 Cloudy with Mist and Fog 61 16.1 60 15.6 97 97 N N/A 30.07 1018 4 6 N/A
8:19 am 08:19 Cloudy with Mist and Fog 62 16.7 60 15.6 93 93 N N/A 30.06 1018 3 5 N/A
8:53 am 08:53 Cloudy with Mist and Fog 62 16.7 60 15.6 93 93 N N/A 30.09 1019 4 6 N/A
9:36 am 09:36 Cloudy with Mist and Fog 62 16.7 60 15.6 93 93 N N/A 30.06 1018 5 8 N/A
9:53 am 09:53 Cloudy with Mist and Fog 63 17.2 61 16.1 93 93 N N/A 30.07 1018 5 8 N/A
10:15 am 10:15 Cloudy with Mist and Fog 65 18.3 61 16.1 87 87 N N/A 30.06 1018 5 8 N/A
10:53 am 10:53 Cloudy with Haze 66 18.9 61 16.1 84 84 N N/A 30.08 1019 6 10 N/A
11:28 am 11:28 Cloudy 67 19.4 61 16.1 81 81 N N/A 30.06 1018 8 13 N/A
11:53 am 11:53 Cloudy 67 19.4 62 16.7 84 84 N N/A 30.09 1019 8 13 N/A
12:14 pm 12:14 Cloudy 68 20 63 17.2 84 84 SW 6 9 30.06 1018 8 13 N/A
12:53 pm 12:53 Cloudy 70 21.1 64 17.8 82 82 W 5 7 30.10 1019 9 14 N/A
1:53 pm 13:53 Partly Cloudy 73 22.8 62 16.7 69 69 W 6 9 30.10 1019 8 13 N/A
2:53 pm 14:53 Sunny 75 23.9 63 17.2 66 66 NNW 5 7 30.08 1019 10 16 N/A
3:53 pm 15:53 Sunny 77 25 63 17.2 62 62 VRB 3 6 30.05 1018 10 16 N/A
4:53 pm 16:53 Mostly Sunny 78 25.6 63 17.2 60 60 VRB 3 6 30.03 1017 10 16 N/A
5:53 pm 17:53 Partly Cloudy 81 27.2 64 17.8 57 57 N N/A 30.02 1017 10 16 N/A
6:53 pm 18:53 Sunny 80 26.7 63 17.2 56 56 N N/A 30.01 1016 10 16 N/A
7:53 pm 19:53 Sunny 75 23.9 68 20 79 79 N N/A 30.02 1017 10 16 N/A
8:53 pm 20:53 Clear 70 21.1 65 18.3 84 84 N N/A 30.03 1017 10 16 N/A
9:53 pm 21:53 Partly Cloudy 68 20 65 18.3 90 90 N N/A 30.03 1017 10 16 N/A
10:53 pm 22:53 Mostly Clear 70 21.1 64 17.8 82 82 N N/A 30.02 1017 10 16 N/A
11:53 pm 23:53 Mostly Cloudy 71 21.7 63 17.2 76 76 SW 7 11 30.02 1017 10 16 N/A

Powered by AerisWeather